| time (UTC) | temp C | wind direction | speed KPH | gust KPH | rain 1hr cm | rain 24hr cm | rain mn cm | humidity % | barometer mb |
| 20260504081517 | 5 | 43 | 1.6 | 3.2 | 0.00 | 0.00 | 0.00 | 94 | 1016.0 |
| 20260504081004 | 5 | 45 | 0.0 | 1.6 | 0.00 | 0.00 | 0.00 | 93 | 1015.9 |
| 20260504080504 | 5 | 44 | 0.0 | 3.2 | 0.00 | 0.00 | 0.00 | 93 | 1015.9 |
| 20260504050503 | 6 | 89 | 0.0 | 0.0 | 0.00 | 0.00 | 0.00 | 90 | 1016.9 |
| 20260504050012 | 6 | 89 | 0.0 | 0.0 | 0.00 | 0.00 | 0.00 | 90 | 1017.0 |
| 20260504045504 | 6 | 89 | 0.0 | 0.0 | 0.00 | 0.00 | 0.00 | 90 | 1017.0 |
| 20260504045003 | 6 | 89 | 0.0 | 1.6 | 0.00 | 0.00 | 0.00 | 89 | 1017.0 |
| 20260504044509 | 6 | 89 | 0.0 | 1.6 | 0.00 | 0.00 | 0.00 | 90 | 1017.0 |
| 20260504044003 | 6 | 89 | 1.6 | 1.6 | 0.00 | 0.00 | 0.00 | 90 | 1016.8 |
| 20260504043503 | 6 | 91 | 0.0 | 1.6 | 0.00 | 0.00 | 0.00 | 89 | 1016.9 |
| 20260504043008 | 7 | 91 | 0.0 | 1.6 | 0.00 | 0.00 | 0.00 | 89 | 1017.0 |
| 20260504042504 | 7 | 91 | 0.0 | 1.6 | 0.00 | 0.00 | 0.00 | 89 | 1017.0 |
| 20260504042003 | 7 | 91 | 0.0 | 1.6 | 0.00 | 0.00 | 0.00 | 88 | 1017.1 |
| 20260504041510 | 7 | 91 | 0.0 | 1.6 | 0.00 | 0.00 | 0.00 | 88 | 1017.2 |
| 20260504041002 | 7 | 91 | 0.0 | 3.2 | 0.00 | 0.00 | 0.00 | 88 | 1017.1 |
| 20260504040503 | 7 | 91 | 0.0 | 3.2 | 0.00 | 0.00 | 0.00 | 88 | 1017.2 |
| 20260504040008 | 7 | 102 | 0.0 | 1.6 | 0.00 | 0.00 | 0.00 | 87 | 1017.1 |
| 20260504035505 | 7 | 124 | 0.0 | 0.0 | 0.00 | 0.00 | 0.00 | 87 | 1017.1 |
| 20260504035004 | 7 | 226 | 0.0 | 0.0 | 0.00 | 0.00 | 0.00 | 87 | 1017.2 |
| 20260504034510 | 7 | 226 | 0.0 | 1.6 | 0.00 | 0.00 | 0.00 | 86 | 1017.2 |
| 20260504034007 | 8 | 226 | 0.0 | 1.6 | 0.00 | 0.00 | 0.00 | 86 | 1017.2 |
| 20260504033505 | 8 | 226 | 0.0 | 1.6 | 0.00 | 0.00 | 0.00 | 86 | 1017.3 |
| 20260504033011 | 8 | 226 | 1.6 | 1.6 | 0.00 | 0.00 | 0.00 | 86 | 1017.2 |
| 20260504032503 | 8 | 226 | 0.0 | 1.6 | 0.00 | 0.00 | 0.00 | 84 | 1017.2 |
| 20260504032006 | 8 | 226 | 0.0 | 1.6 | 0.00 | 0.00 | 0.00 | 84 | 1017.3 |
| 20260504031511 | 8 | 226 | 0.0 | 0.0 | 0.00 | 0.00 | 0.00 | 85 | 1017.3 |
| 20260504031004 | 8 | 226 | 0.0 | 0.0 | 0.00 | 0.00 | 0.00 | 84 | 1017.3 |
| 20260504030504 | 8 | 226 | 0.0 | 0.0 | 0.00 | 0.00 | 0.00 | 84 | 1017.3 |
| 20260504030013 | 8 | 226 | 0.0 | 0.0 | 0.00 | 0.00 | 0.00 | 84 | 1017.4 |
| 20260504025503 | 8 | 226 | 0.0 | 0.0 | 0.00 | 0.00 | 0.00 | 83 | 1017.4 |
| 20260504025003 | 8 | 226 | 0.0 | 0.0 | 0.00 | 0.00 | 0.00 | 83 | 1017.2 |
| 20260504024507 | 8 | 226 | 0.0 | 1.6 | 0.00 | 0.00 | 0.00 | 80 | 1017.2 |
| 20260504024003 | 9 | 226 | 0.0 | 1.6 | 0.00 | 0.00 | 0.00 | 81 | 1017.2 |
| 20260504023504 | 9 | 226 | 0.0 | 1.6 | 0.00 | 0.00 | 0.00 | 81 | 1017.3 |
| 20260504023009 | 9 | 226 | 1.6 | 1.6 | 0.00 | 0.00 | 0.00 | 81 | 1017.2 |
| 20260504022506 | 9 | 225 | 0.0 | 0.0 | 0.00 | 0.00 | 0.00 | 79 | 1017.1 |
| 20260504022004 | 10 | 225 | 0.0 | 1.6 | 0.00 | 0.00 | 0.00 | 78 | 1017.2 |
| 20260504021509 | 10 | 225 | 0.0 | 1.6 | 0.00 | 0.00 | 0.00 | 78 | 1017.1 |
| 20260504021004 | 10 | 225 | 0.0 | 0.0 | 0.00 | 0.00 | 0.00 | 79 | 1017.0 |
| 20260504020503 | 10 | 225 | 0.0 | 0.0 | 0.00 | 0.00 | 0.00 | 78 | 1016.9 |
| 20260504020010 | 10 | 225 | 0.0 | 0.0 | 0.00 | 0.00 | 0.00 | 76 | 1016.9 |
| 20260504015503 | 10 | 225 | 0.0 | 0.0 | 0.00 | 0.00 | 0.00 | 76 | 1017.0 |
| 20260504015005 | 10 | 225 | 0.0 | 0.0 | 0.00 | 0.00 | 0.00 | 75 | 1016.8 |
| 20260504014511 | 11 | 225 | 0.0 | 0.0 | 0.00 | 0.00 | 0.00 | 74 | 1016.8 |
| 20260504014003 | 11 | 225 | 0.0 | 0.0 | 0.00 | 0.00 | 0.00 | 73 | 1016.9 |
| 20260504013503 | 11 | 225 | 0.0 | 0.0 | 0.00 | 0.00 | 0.00 | 72 | 1016.8 |
| 20260504013012 | 11 | 225 | 0.0 | 0.0 | 0.00 | 0.00 | 0.00 | 70 | 1016.7 |
| 20260504012504 | 11 | 225 | 0.0 | 0.0 | 0.00 | 0.00 | 0.00 | 68 | 1016.7 |
| 20260504012004 | 12 | 225 | 0.0 | 0.0 | 0.00 | 0.00 | 0.00 | 67 | 1016.7 |
| 20260504011512 | 12 | 225 | 0.0 | 0.0 | 0.00 | 0.00 | 0.00 | 65 | 1016.6 |
| 20260504011004 | 12 | 225 | 0.0 | 0.0 | 0.00 | 0.00 | 0.00 | 63 | 1016.6 |
| 20260504010503 | 13 | 225 | 0.0 | 0.0 | 0.00 | 0.00 | 0.00 | 61 | 1016.6 |
| 20260504010012 | 13 | 225 | 0.0 | 0.0 | 0.00 | 0.00 | 0.00 | 58 | 1016.6 |
| 20260504005504 | 14 | 225 | 0.0 | 0.0 | 0.00 | 0.00 | 0.00 | 57 | 1016.5 |
| 20260504005004 | 15 | 225 | 0.0 | 0.0 | 0.00 | 0.00 | 0.00 | 54 | 1016.4 |
| 20260504004511 | 15 | 224 | 0.0 | 1.6 | 0.00 | 0.00 | 0.00 | 53 | 1016.4 |
| 20260504004003 | 16 | 225 | 0.0 | 1.6 | 0.00 | 0.00 | 0.00 | 52 | 1016.4 |
| 20260504003503 | 16 | 225 | 0.0 | 3.2 | 0.00 | 0.00 | 0.00 | 50 | 1016.3 |
| 20260504003013 | 16 | 225 | 1.6 | 4.8 | 0.00 | 0.00 | 0.00 | 48 | 1016.3 |
| 20260504002503 | 17 | 229 | 1.6 | 6.4 | 0.00 | 0.00 | 0.00 | 47 | 1016.3 |
| 20260504002004 | 17 | 250 | 3.2 | 6.4 | 0.00 | 0.00 | 0.00 | 45 | 1016.3 |
| 20260504001511 | 17 | 245 | 1.6 | 6.4 | 0.00 | 0.00 | 0.00 | 44 | 1016.3 |
| 20260504001004 | 18 | 236 | 4.8 | 8.0 | 0.00 | 0.00 | 0.00 | 43 | 1016.3 |
| 20260504000504 | 18 | 227 | 4.8 | 11.3 | 0.00 | 0.00 | 0.00 | 42 | 1016.3 |
| 20260504000042 | 18 | 241 | 6.4 | 11.3 | 0.00 | 0.00 | 0.00 | 42 | 1016.3 |
| 20260503235506 | 18 | 252 | 4.8 | 9.7 | 0.00 | 0.00 | 0.00 | 42 | 1016.3 |
| 20260503235004 | 18 | 236 | 6.4 | 11.3 | 0.00 | 0.00 | 0.00 | 41 | 1016.4 |
| 20260503234513 | 18 | 229 | 6.4 | 11.3 | 0.00 | 0.00 | 0.00 | 41 | 1016.4 |
| 20260503234004 | 18 | 240 | 8.0 | 12.9 | 0.00 | 0.00 | 0.00 | 40 | 1016.4 |
| 20260503233505 | 18 | 234 | 9.7 | 14.5 | 0.00 | 0.00 | 0.00 | 40 | 1016.4 |
| 20260503233016 | 18 | 253 | 8.0 | 14.5 | 0.00 | 0.00 | 0.00 | 40 | 1016.6 |
| 20260503232507 | 18 | 209 | 9.7 | 14.5 | 0.00 | 0.00 | 0.00 | 39 | 1016.6 |
| 20260503232004 | 19 | 225 | 9.7 | 11.3 | 0.00 | 0.00 | 0.00 | 39 | 1016.7 |
| 20260503231514 | 19 | 276 | 8.0 | 11.3 | 0.00 | 0.00 | 0.00 | 39 | 1016.7 |
| 20260503231004 | 19 | 248 | 8.0 | 12.9 | 0.00 | 0.00 | 0.00 | 39 | 1016.8 |
| 20260503230504 | 19 | 258 | 8.0 | 12.9 | 0.00 | 0.00 | 0.00 | 38 | 1016.9 |
| 20260503230011 | 19 | 270 | 4.8 | 12.9 | 0.00 | 0.00 | 0.00 | 38 | 1017.0 |
| 20260503225504 | 19 | 250 | 9.7 | 12.9 | 0.00 | 0.00 | 0.00 | 39 | 1017.1 |
| 20260503225007 | 19 | 238 | 4.8 | 8.0 | 0.00 | 0.00 | 0.00 | 38 | 1017.2 |
| 20260503224516 | 19 | 323 | 3.2 | 9.7 | 0.00 | 0.00 | 0.00 | 40 | 1017.2 |
| 20260503224004 | 19 | 309 | 6.4 | 11.3 | 0.00 | 0.00 | 0.00 | 39 | 1017.3 |
| 20260503223504 | 19 | 244 | 6.4 | 14.5 | 0.00 | 0.00 | 0.00 | 40 | 1017.3 |
| 20260503223016 | 18 | 289 | 11.3 | 16.1 | 0.00 | 0.00 | 0.00 | 40 | 1017.3 |
| 20260503222503 | 18 | 263 | 6.4 | 16.1 | 0.00 | 0.00 | 0.00 | 39 | 1017.3 |
| 20260503222003 | 19 | 293 | 3.2 | 17.7 | 0.00 | 0.00 | 0.00 | 39 | 1017.3 |
| 20260503221516 | 19 | 245 | 8.0 | 17.7 | 0.00 | 0.00 | 0.00 | 41 | 1017.3 |
| 20260503221007 | 19 | 269 | 9.7 | 14.5 | 0.00 | 0.00 | 0.00 | 38 | 1017.2 |
| 20260503220506 | 19 | 212 | 4.8 | 9.7 | 0.00 | 0.00 | 0.00 | 40 | 1017.4 |
| 20260503220015 | 19 | 257 | 4.8 | 9.7 | 0.00 | 0.00 | 0.00 | 40 | 1017.3 |
| 20260503215504 | 18 | 254 | 1.6 | 14.5 | 0.00 | 0.00 | 0.00 | 38 | 1017.3 |
| 20260503215003 | 18 | 272 | 9.7 | 16.1 | 0.00 | 0.00 | 0.00 | 38 | 1017.4 |
| 20260503214519 | 19 | 249 | 11.3 | 16.1 | 0.00 | 0.00 | 0.00 | 36 | 1017.5 |
| 20260503214005 | 18 | 252 | 6.4 | 14.5 | 0.00 | 0.00 | 0.00 | 40 | 1017.6 |
| 20260503213509 | 18 | 259 | 8.0 | 16.1 | 0.00 | 0.00 | 0.00 | 38 | 1017.7 |
| 20260503213016 | 18 | 259 | 11.3 | 16.1 | 0.00 | 0.00 | 0.00 | 38 | 1017.7 |
| 20260503212506 | 18 | 263 | 6.4 | 20.9 | 0.00 | 0.00 | 0.00 | 40 | 1017.8 |
| 20260503212005 | 18 | 290 | 11.3 | 20.9 | 0.00 | 0.00 | 0.00 | 36 | 1017.9 |
| 20260503211517 | 19 | 257 | 8.0 | 14.5 | 0.00 | 0.00 | 0.00 | 37 | 1017.9 |
| 20260503211003 | 18 | 250 | 1.6 | 11.3 | 0.00 | 0.00 | 0.00 | 38 | 1018.0 |
| 20260503210505 | 18 | 226 | 3.2 | 12.9 | 0.00 | 0.00 | 0.00 | 39 | 1018.1 |
| 20260503210019 | 18 | 295 | 9.7 | 19.3 | 0.00 | 0.00 | 0.00 | 37 | 1018.2 |
| 20260503205506 | 18 | 263 | 12.9 | 19.3 | 0.00 | 0.00 | 0.00 | 37 | 1018.2 |
| 20260503205007 | 18 | 233 | 8.0 | 19.3 | 0.00 | 0.00 | 0.00 | 37 | 1018.2 |
| 20260503204519 | 18 | 229 | 9.7 | 17.7 | 0.00 | 0.00 | 0.00 | 37 | 1018.3 |
| 20260503204005 | 18 | 253 | 11.3 | 17.7 | 0.00 | 0.00 | 0.00 | 36 | 1018.3 |
| 20260503203504 | 18 | 207 | 8.0 | 16.1 | 0.00 | 0.00 | 0.00 | 36 | 1018.4 |
| 20260503203025 | 18 | 218 | 1.6 | 16.1 | 0.00 | 0.00 | 0.00 | 41 | 1018.4 |
| 20260503202508 | 18 | 254 | 12.9 | 20.9 | 0.00 | 0.00 | 0.00 | 38 | 1018.5 |
| 20260503202006 | 18 | 271 | 12.9 | 20.9 | 0.00 | 0.00 | 0.00 | 37 | 1018.7 |
| 20260503201518 | 18 | 240 | 8.0 | 20.9 | 0.00 | 0.00 | 0.00 | 37 | 1018.7 |
| 20260503201006 | 18 | 293 | 9.7 | 20.9 | 0.00 | 0.00 | 0.00 | 36 | 1018.9 |
| 20260503200503 | 18 | 226 | 11.3 | 19.3 | 0.00 | 0.00 | 0.00 | 38 | 1018.9 |
| 20260503200020 | 17 | 243 | 8.0 | 17.7 | 0.00 | 0.00 | 0.00 | 36 | 1019.0 |
| 20260503195508 | 17 | 281 | 8.0 | 19.3 | 0.00 | 0.00 | 0.00 | 37 | 1019.2 |
| 20260503195005 | 17 | 264 | 12.9 | 19.3 | 0.00 | 0.00 | 0.00 | 37 | 1019.3 |
| 20260503194512 | 18 | 229 | 12.9 | 19.3 | 0.00 | 0.00 | 0.00 | 37 | 1019.4 |
| 20260503194003 | 18 | 255 | 11.3 | 17.7 | 0.00 | 0.00 | 0.00 | 41 | 1019.5 |
| 20260503193505 | 18 | 251 | 1.6 | 8.0 | 0.00 | 0.00 | 0.00 | 39 | 1019.6 |
| 20260503193018 | 17 | 105 | 3.2 | 16.1 | 0.00 | 0.00 | 0.00 | 40 | 1019.7 |
| 20260503192507 | 17 | 267 | 9.7 | 16.1 | 0.00 | 0.00 | 0.00 | 41 | 1019.8 |
| 20260503192006 | 17 | 213 | 4.8 | 19.3 | 0.00 | 0.00 | 0.00 | 39 | 1019.8 |
| 20260503191520 | 17 | 264 | 14.5 | 19.3 | 0.00 | 0.00 | 0.00 | 38 | 1019.9 |
| 20260503191007 | 17 | 233 | 1.6 | 22.5 | 0.00 | 0.00 | 0.00 | 40 | 1019.9 |
| 20260503190507 | 17 | 262 | 14.5 | 22.5 | 0.00 | 0.00 | 0.00 | 36 | 1020.0 |
| 20260503190025 | 17 | 239 | 4.8 | 14.5 | 0.00 | 0.00 | 0.00 | 39 | 1020.1 |
| 20260503185507 | 17 | 227 | 6.4 | 17.7 | 0.00 | 0.00 | 0.00 | 37 | 1020.1 |
| 20260503185011 | 17 | 268 | 6.4 | 17.7 | 0.00 | 0.00 | 0.00 | 37 | 1020.2 |
| 20260503184523 | 16 | 266 | 9.7 | 20.9 | 0.00 | 0.00 | 0.00 | 35 | 1020.2 |
| 20260503184005 | 17 | 276 | 8.0 | 20.9 | 0.00 | 0.00 | 0.00 | 38 | 1020.3 |
| 20260503183503 | 17 | 243 | 6.4 | 17.7 | 0.00 | 0.00 | 0.00 | 38 | 1020.3 |
| 20260503183013 | 16 | 207 | 11.3 | 17.7 | 0.00 | 0.00 | 0.00 | 37 | 1020.3 |
| 20260503182503 | 16 | 84 | 4.8 | 16.1 | 0.00 | 0.00 | 0.00 | 36 | 1020.4 |
| 20260503182003 | 16 | 278 | 8.0 | 16.1 | 0.00 | 0.00 | 0.00 | 37 | 1020.5 |
| 20260503181517 | 16 | 217 | 4.8 | 17.7 | 0.00 | 0.00 | 0.00 | 39 | 1020.5 |
| 20260503181004 | 16 | 242 | 14.5 | 19.3 | 0.00 | 0.00 | 0.00 | 38 | 1020.5 |
| 20260503180505 | 16 | 226 | 6.4 | 20.9 | 0.00 | 0.00 | 0.00 | 41 | 1020.7 |
| 20260503180028 | 17 | 240 | 14.5 | 20.9 | 0.00 | 0.00 | 0.00 | 42 | 1020.7 |
| 20260503175507 | 16 | 165 | 6.4 | 14.5 | 0.00 | 0.00 | 0.00 | 41 | 1020.7 |
| 20260503175007 | 16 | 219 | 9.7 | 17.7 | 0.00 | 0.00 | 0.00 | 42 | 1020.7 |
| 20260503174521 | 16 | 233 | 0.0 | 17.7 | 0.00 | 0.00 | 0.00 | 42 | 1020.7 |
| 20260503174009 | 16 | 192 | 8.0 | 14.5 | 0.00 | 0.00 | 0.00 | 44 | 1020.8 |
| 20260503173507 | 16 | 214 | 8.0 | 14.5 | 0.00 | 0.00 | 0.00 | 43 | 1021.0 |
| 20260503173040 | 16 | 250 | 1.6 | 16.1 | 0.00 | 0.00 | 0.00 | 45 | 1021.1 |
| 20260503172504 | 16 | 229 | 6.4 | 16.1 | 0.00 | 0.00 | 0.00 | 46 | 1021.2 |
| 20260503172003 | 16 | 228 | 8.0 | 16.1 | 0.00 | 0.00 | 0.00 | 45 | 1021.1 |
| 20260503171512 | 16 | 122 | 4.8 | 12.9 | 0.00 | 0.00 | 0.00 | 44 | 1021.2 |
| 20260503171003 | 16 | 211 | 6.4 | 12.9 | 0.00 | 0.00 | 0.00 | 48 | 1021.3 |
| 20260503170503 | 16 | 36 | 3.2 | 6.4 | 0.00 | 0.00 | 0.00 | 50 | 1021.5 |
| 20260503151011 | 13 | 240 | 4.8 | 9.7 | 0.00 | 0.00 | 0.00 | 52 | 1022.0 |
| 20260503150508 | 13 | 196 | 4.8 | 9.7 | 0.00 | 0.00 | 0.00 | 52 | 1022.1 |
| 20260503131008 | 7 | 205 | 0.0 | 3.2 | 0.00 | 0.00 | 0.00 | 96 | 1021.9 |
| 20260503130505 | 7 | 220 | 0.0 | 3.2 | 0.00 | 0.00 | 0.00 | 95 | 1022.0 |
| 20260503110507 | 2 | 58 | 0.0 | 1.6 | 0.00 | 0.00 | 0.00 | 95 | 1021.1 |
| 20260503090503 | 3 | 49 | 0.0 | 1.6 | 0.00 | 0.00 | 0.00 | 94 | 1020.2 |